Volver al catálogo

YZ-1 R/B

ActivoHEO
NORAD 41929·ROCKET BODY·🇨🇳 China

Lanzado Mar 30, 2015 desde Xichang Satellite Launch Center

Loading…

Próximos Pases (próximas 24 horas)

TLE

ActualizadoSource: Space-Track

Época: Sep 17, 2026, 02:35 UTC

1 41929U 15019C   26260.10783736 -.00000615  00000-0  00000-0 0  9995
2 41929  17.2225  81.4640 7012978 320.4724 358.4276  0.27923502 11024

Sigue YZ-1 R/B en tiempo real con AllMySat

Download on the App Store